Location: ?????????
(54.7630°N, 39.4991°E)
Time: 04:59:46
(UTC+00:00)

Cosmos 2016 Rocket - Pass Details

Date: 14 April 2026
Orbit: 945 x 1000 km, 83.0° (Epoch: 10 May)

Event Time Altitude Azimuth Distance (km) Brightness Sun altitude
Exits shadow 22:10:47 41° 244° (WSW) 1,425 4.5 -24.8°
Maximum altitude 22:12:32 51° 289° (WNW) 1,236 4.5 -24.7°
Drops below altitude 10° 22:18:45 10° 5° (N) 2,770 7.4 -24.5°
Sets 22:21:22 0° 11° (N) 3,716 8.4 -24.4°
